User: anonymous   Login
Location: Asar Burnu
(36.5203°N, 30.5523°E)
Time: 18:28:48
(UTC+00:00)
Language:

Cosmos 1606 Rocket - Orbit

View from above orbital plane
View from above orbital plane
View from above satellite
View from above satellite

Ground track
Ground track

The orbit data is extracted from the following two-line orbital elements,

1 15370U 84111B   24282.23078683  .00005339  00000-0  61890-3 0  9993
2 15370  82.5195  23.2026 0019125 243.2968 116.6290 14.85173138160143
Epoch (UTC): 08 October 2024 05:32:19
Eccentricity: 0.0019125
inclination: 82.5195°
perigee height: 599 km
apogee height: 626 km
right ascension of ascending node: 23.2026°
argument of perigee: 243.2968°
revolutions per day: 14.85173138
mean anomaly at epoch: 116.6290°
orbit number at epoch: 16014

The dashed part of the orbit path shows where the satellite is in the earth's shadow,  

DLR